Flag for Brazil Weather past 2 weeks in Belém, Para, Brazil

Now
75 °F

Sunny.


Feels Like: 73 °F
Forecast: 74 / 88 °F
Wind: 2 mph from Northeast

Location: Belem Aeroporto

Current Time: Aug 31, 2014 at 7:37:21 AM

Latest Report: Aug 31, 2014 at 7:00 AM


Visibility: 10 mi

Pressure: 29.92 "Hg

Humidity: 100%

Dew point: 75 °F

Location of BelémLocation

Historic Weather in Belém — Graph

°F

Belém temperature yesterday

Maximum temperature yesterday: 88 °F (at 12:00 PM)
Minimum temperature yesterday: 73 °F (at 12:00 AM)
Average temperature yesterday: 79 °F

Past Weeks' High & Low Weather Summary

 TemperatureHumidityPressure
High93 °F (Aug 19, 2:00 PM)100% (Aug 29, 11:00 PM)30.01 "Hg (Aug 29, 11:00 PM)
Low73 °F (Aug 21, 6:00 AM)39% (Aug 19, 2:00 PM)29.80 "Hg (Aug 17, 4:00 PM)
Average80 °F78%29.90 "Hg
* Reported Aug 16 6:00 AM — Aug 31 6:00 AM, Belém, Weather by CustomWeather, © 2014

Note: Actual official high and low records may vary slightly from our data, if they occured in-between our weather recording intervals... More about our weather records

Advertising

Belém weather history for previous 24 hours

 ConditionsComfort  
Time TempWeatherWind HumidityBarometerVisibility
6:00 AM
Aug 31
73 °FClear.2 mph100%29.92 "Hg10 mi
5:00 AM73 °FClear.1 mph100%29.92 "Hg10 mi
4:00 AM75 °FClear.2 mph94%29.92 "Hg10 mi
3:00 AM75 °FClear.2 mph94%29.95 "Hg10 mi
2:00 AM75 °FClear.2 mph94%29.95 "Hg10 mi
1:00 AM75 °FClear.3 mph94%29.98 "Hg10 mi
12:00 AM77 °FClear.3 mph89%29.98 "Hg10 mi
11:00 PM
Aug 30
77 °FClear.5 mph89%29.98 "Hg10 mi
10:00 PM77 °FPassing clouds.5 mph94%29.98 "HgN/A
9:00 PM79 °FPartly cloudy.5 mph89%29.95 "HgN/A
8:00 PM79 °FPartly cloudy.8 mph89%29.92 "HgN/A
7:00 PM79 °FPartly cloudy.5 mph94%29.89 "HgN/A
6:00 PM81 °FPartly sunny.3 mph89%29.89 "HgN/A
5:00 PM81 °FPartly sunny.8 mph89%29.89 "HgN/A
4:00 PM77 °FBroken clouds.7 mph100%29.89 "HgN/A
3:00 PM75 °FPartly sunny.5 mph100%29.92 "HgN/A
2:00 PM84 °FPartly sunny.17 mph70%29.92 "HgN/A
1:00 PM88 °FPartly sunny.2 mph55%29.95 "HgN/A
12:00 PM88 °FPartly sunny.13 mph55%29.98 "HgN/A
11:00 AM86 °FPartly sunny.7 mph66%29.98 "HgN/A
10:00 AM84 °FScattered clouds.9 mph66%29.98 "HgN/A
9:00 AM81 °FPassing clouds.12 mph79%29.98 "HgN/A
8:00 AM79 °FSunny.6 mph89%29.95 "Hg10 mi
7:00 AM77 °FSunny.2 mph89%29.95 "Hg10 mi
Weather by CustomWeather, © 2014

See weather overviewHow to use our weather pages